Location: Unspecified
(0.0000°N, 0.0000°E)
Time: 15:10:04
(UTC+00:00)

Geosat - Pass Details

Date: 17 June 2023
Orbit: 761 x 764 km, 108.1° (Epoch: 20 September)

Event Time Altitude Azimuth Distance (km) Brightness Sun altitude
Exits shadow 03:16:31 15° 9° (N) 1,964 6.4 -37.1°
Drops below altitude 10° 03:17:26 10° 3° (N) 2,286 6.7 -36.9°
Sets 03:19:51 0° 354° (N) 3,208 7.5 -36.4°
